Regional Weather Roundup
Issued by NWS

Home | Current Version | Previous Version | Text Only | Print | Product List | Glossary Off
Versions: 1 2 3 4 5 6 7 8 9 10 11 12 13 14 15 16 17 18 19 20 21 22 23 24 25 26 27 28 29 30 31 32 33 34 35 36 37 38 39 40 41 42 43 44 45 46 47 48 49 50

000
ASUS45 KBOI 020610
RWRID

IDAHO REGIONAL WEATHER ROUNDUP
NATIONAL WEATHER SERVICE BOISE ID
1200 AM MDT SUN AUG 02 2015

NOTE: "FAIR" INDICATES FEW OR NO CLOUDS BELOW 12000 FEET
WITH NO SIGNIFICANT WEATHER AND/OR OBSTRUCTIONS TO VISIBILITY

IDZ012-014-020700-
SOUTHWEST IDAHO


CITY           SKY/WX    TMP DP  RH WIND       PRES   REMARKS
BOISE          PTCLDY    84  34  16 SE7       29.88S
CALDWELL       PTCLDY    72  50  46 CALM      29.87S
MOUNTAIN HOME  CLEAR     80  30  16 NW8       29.88F
$$

IDZ016-017-020700-
SOUTHCENTRAL IDAHO


CITY           SKY/WX    TMP DP  RH WIND       PRES   REMARKS
BURLEY         PTCLDY    64  44  48 SW3       29.98F
JEROME         CLEAR     73  38  27 E7        29.98F
TWIN FALLS     PTCLDY    78  31  17 S14       29.96F
$$

IDZ019>023-020700-
SOUTHEAST IDAHO


CITY           SKY/WX    TMP DP  RH WIND       PRES   REMARKS
IDAHO FALLS    PTCLDY    67  45  45 CALM      30.06S
POCATELLO      CLEAR     63  41  44 W5        30.03F
REXBURG        PTCLDY    61  43  51 NE8       30.07S
$$

IDZ006-010-011-018-031-032-020700-
CENTRAL IDAHO MOUNTAINS


CITY           SKY/WX    TMP DP  RH WIND       PRES   REMARKS
MCCALL         CLEAR     73  36  25 N8        30.09S
HAILEY         CLEAR     64  39  39 NW10      30.12S
STANLEY          N/A     53  30  41 SE3       30.23S
SALMON         CLEAR     70  39  32 NE5       30.00R
CHALLIS        CLEAR     67  33  28 CALM      30.08R
$$

IDZ002-004-006-007-026-020700-
NORTHERN IDAHO


CITY           SKY/WX    TMP DP  RH WIND       PRES   REMARKS
LEWISTON       PTCLDY    82  26  13 SW9       29.84S
LOWELL           N/A     68  52  56 N3        29.90R
COEUR D`ALENE  PTCLDY    64  43  45 CALM      29.89S
MULLAN PASS    CLOUDY    69  16  13 VRB5      30.17S
$$



USA.gov is the U.S. government's official web portal to all federal, state and local government web resources and services.